EGKK

London Gatwick Airport

Airport
ICAO code
EGKK
IATA Code
LGW
Summary
ICAO Region
EUR
ICAO Territory
Location

Crawley, West Sussex

Serving
London
Elevation
202 ft
Coordinates
51° 9' 13" N , 0° 11' 4" W
KCC
Metar
Observation
EGKK 010650Z 24005KT 9999 FEW019 12/11 Q1005
Station
London / Gatwick Airport
Date/Time
2022-10-01 06:50:00
Wind direction
240°
Wind speed
05 kts
Lowest cloud amount
few clouds
Temperature
12°C
Dew point
11°C
Humidity
93%
QNH
1005 hPa
Weather condition
n/a

London's second largest international airport.

Climatology

Temperate Marine climate/Oceanic climate (Köppen climate classification Cfb). Moderately cool summer and comparatively warm winter with a temperature range of only 14°C. Prevailing south-westerly winds from the Atlantic Ocean.

Runways

Designator Length Width Surface Rops
08L/26R 2565 45 ASP Yes/Yes
08R/26L 3159 45 ASP Yes/Yes

SKYbrary Partners:

Safety knowledge contributed by: